Time,TemperatureF,DewpointF,PressureIn,WindDirection,WindDirectionDegrees,WindSpeedMPH,WindSpeedGustMPH,Humidity,HourlyPrecipIn,Conditions,Clouds,dailyrainin,SoftwareType,DateUTC
2013-03-01 00:01:00,25.5,2.3,28.94,NW,308,5.8,5.8,36,0.00,,,0.00,VWS V14.01,2013-03-01 06:01:00,
2013-03-01 00:06:00,25.3,2.1,28.94,NW,308,5.8,5.8,36,0.00,,,0.00,VWS V14.01,2013-03-01 06:06:00,
2013-03-01 00:11:00,25.3,2.1,28.94,NW,308,5.8,5.8,36,0.00,,,0.00,VWS V14.01,2013-03-01 06:11:00,
2013-03-01 00:16:00,25.3,2.1,28.94,WNW,293,11.0,11.0,36,0.00,,,0.00,VWS V14.01,2013-03-01 06:16:00,
2013-03-01 00:21:00,25.3,2.1,28.94,WNW,299,6.3,7.6,36,0.00,,,0.00,VWS V14.01,2013-03-01 06:21:00,
2013-03-01 00:26:00,25.3,2.1,28.94,NW,307,8.1,9.6,36,0.00,,,0.00,VWS V14.01,2013-03-01 06:26:00,
2013-03-01 00:31:00,25.3,2.1,28.94,NW,312,8.7,8.7,36,0.00,,,0.00,VWS V14.01,2013-03-01 06:31:00,
2013-03-01 00:36:00,25.3,1.5,28.94,NW,311,10.1,11.0,35,0.00,,,0.00,VWS V14.01,2013-03-01 06:36:00,
2013-03-01 00:41:00,25.3,1.5,28.94,NW,320,12.3,12.3,35,0.00,,,0.00,VWS V14.01,2013-03-01 06:41:00,
2013-03-01 00:46:00,25.3,0.9,28.94,NW,318,6.3,10.5,34,0.00,,,0.00,VWS V14.01,2013-03-01 06:46:00,
2013-03-01 00:51:00,25.3,0.9,28.94,NW,312,5.8,8.7,34,0.00,,,0.00,VWS V14.01,2013-03-01 06:51:00,
2013-03-01 00:56:00,25.3,1.5,28.94,NW,321,6.3,8.7,35,0.00,,,0.00,VWS V14.01,2013-03-01 06:56:00,
2013-03-01 01:01:00,25.3,1.5,28.94,NW,324,7.6,7.6,35,0.00,,,0.00,VWS V14.01,2013-03-01 07:01:00,
2013-03-01 01:06:00,25.3,1.5,28.94,NNW,333,7.6,8.3,35,0.00,,,0.00,VWS V14.01,2013-03-01 07:06:00,
2013-03-01 01:11:00,25.3,1.5,28.94,NW,321,8.3,11.0,35,0.00,,,0.00,VWS V14.01,2013-03-01 07:11:00,
2013-03-01 01:16:00,25.3,1.5,28.94,NW,316,13.2,13.2,35,0.00,,,0.00,VWS V14.01,2013-03-01 07:16:00,
2013-03-01 01:21:00,25.3,1.5,28.94,NNW,339,8.1,12.3,35,0.00,,,0.00,VWS V14.01,2013-03-01 07:21:00,
2013-03-01 01:26:00,25.3,1.5,28.94,NW,310,10.5,11.4,35,0.00,,,0.00,VWS V14.01,2013-03-01 07:26:00,
2013-03-01 01:31:00,25.3,0.9,28.94,NW,319,8.7,8.7,34,0.00,,,0.00,VWS V14.01,2013-03-01 07:31:00,
2013-03-01 01:36:00,25.3,0.9,28.94,NW,311,8.1,10.5,34,0.00,,,0.00,VWS V14.01,2013-03-01 07:36:00,
2013-03-01 01:41:00,25.3,0.9,28.94,NW,316,10.5,12.8,34,0.00,,,0.00,VWS V14.01,2013-03-01 07:41:00,
2013-03-01 01:46:00,25.3,0.9,28.94,NW,321,7.6,7.6,34,0.00,,,0.00,VWS V14.01,2013-03-01 07:46:00,
2013-03-01 01:51:00,25.3,0.9,28.94,NW,314,10.5,10.5,34,0.00,,,0.00,VWS V14.01,2013-03-01 07:51:00,
2013-03-01 01:56:00,25.3,1.5,28.94,NNW,331,8.3,15.4,35,0.00,,,0.00,VWS V14.01,2013-03-01 07:56:00,
2013-03-01 02:01:00,25.3,1.5,28.94,NW,320,8.1,8.3,35,0.00,,,0.00,VWS V14.01,2013-03-01 08:01:00,
2013-03-01 02:06:00,25.3,1.5,28.94,NW,306,10.5,10.5,35,0.00,,,0.00,VWS V14.01,2013-03-01 08:06:00,
2013-03-01 02:11:00,25.3,1.5,28.94,NW,310,10.5,12.8,35,0.00,,,0.00,VWS V14.01,2013-03-01 08:11:00,
2013-03-01 02:16:00,25.2,2.0,28.94,NW,320,7.6,8.7,36,0.00,,,0.00,VWS V14.01,2013-03-01 08:16:00,
2013-03-01 02:21:00,25.2,2.0,28.94,NNW,339,8.3,10.1,36,0.00,,,0.00,VWS V14.01,2013-03-01 08:21:00,
2013-03-01 02:26:00,25.2,2.0,28.94,NW,309,4.9,6.3,36,0.00,,,0.00,VWS V14.01,2013-03-01 08:26:00,
2013-03-01 02:31:00,25.2,2.0,28.94,WNW,303,8.7,8.7,36,0.00,,,0.00,VWS V14.01,2013-03-01 08:31:00,
2013-03-01 02:36:00,25.3,2.1,28.94,NW,321,7.6,11.0,36,0.00,,,0.00,VWS V14.01,2013-03-01 08:36:00,
2013-03-01 02:41:00,25.2,2.0,28.94,NW,325,5.4,8.3,36,0.00,,,0.00,VWS V14.01,2013-03-01 08:41:00,
2013-03-01 02:46:00,25.2,2.0,28.94,NW,324,6.3,6.3,36,0.00,,,0.00,VWS V14.01,2013-03-01 08:46:00,
2013-03-01 02:51:00,25.3,2.1,28.94,NW,307,8.7,8.7,36,0.00,,,0.00,VWS V14.01,2013-03-01 08:51:00,
2013-03-01 02:56:00,25.3,1.5,28.94,NW,316,8.1,8.7,35,0.00,,,0.00,VWS V14.01,2013-03-01 08:56:00,
2013-03-01 03:01:00,25.3,1.5,28.94,NW,314,7.6,8.7,35,0.00,,,0.00,VWS V14.01,2013-03-01 09:01:00,
2013-03-01 03:06:00,25.3,2.1,28.94,NNW,343,10.1,10.1,36,0.00,,,0.00,VWS V14.01,2013-03-01 09:06:00,
2013-03-01 03:11:00,25.3,2.1,28.94,NW,315,5.8,7.6,36,0.00,,,0.00,VWS V14.01,2013-03-01 09:11:00,
2013-03-01 03:16:00,25.3,1.5,28.94,NW,314,10.1,10.5,35,0.00,,,0.00,VWS V14.01,2013-03-01 09:16:00,
2013-03-01 03:21:00,25.3,1.5,28.94,NW,325,8.1,8.7,35,0.00,,,0.00,VWS V14.01,2013-03-01 09:21:00,
2013-03-01 03:26:00,25.3,1.5,28.94,NW,313,7.2,8.3,35,0.00,,,0.00,VWS V14.01,2013-03-01 09:26:00,
2013-03-01 03:31:00,25.3,1.5,28.94,NNW,331,8.1,8.1,35,0.00,,,0.00,VWS V14.01,2013-03-01 09:31:00,
2013-03-01 03:36:00,25.3,0.9,28.94,NW,317,5.8,8.3,34,0.00,,,0.00,VWS V14.01,2013-03-01 09:36:00,
2013-03-01 03:41:00,25.3,0.9,28.94,NW,320,11.9,11.9,34,0.00,,,0.00,VWS V14.01,2013-03-01 09:41:00,
2013-03-01 03:46:00,25.3,0.9,28.94,NNW,335,10.5,12.3,34,0.00,,,0.00,VWS V14.01,2013-03-01 09:46:00,
2013-03-01 03:51:00,25.3,0.9,28.94,NW,307,11.0,11.0,34,0.00,,,0.00,VWS V14.01,2013-03-01 09:51:00,
2013-03-01 03:56:00,25.3,0.9,28.94,WNW,303,11.0,11.0,34,0.00,,,0.00,VWS V14.01,2013-03-01 09:56:00,
2013-03-01 04:01:00,25.3,0.9,28.94,NW,321,12.8,12.8,34,0.00,,,0.00,VWS V14.01,2013-03-01 10:01:00,
2013-03-01 04:06:00,25.3,0.9,28.94,NW,312,10.1,12.3,34,0.00,,,0.00,VWS V14.01,2013-03-01 10:06:00,
2013-03-01 04:11:00,25.3,1.5,28.94,NW,315,6.7,7.2,35,0.00,,,0.00,VWS V14.01,2013-03-01 10:11:00,
2013-03-01 04:16:00,25.3,1.5,28.94,NW,325,10.1,11.0,35,0.00,,,0.00,VWS V14.01,2013-03-01 10:16:00,
2013-03-01 04:21:00,25.2,1.4,28.94,NW,316,10.5,10.5,35,0.00,,,0.00,VWS V14.01,2013-03-01 10:21:00,
2013-03-01 04:26:00,25.2,1.4,28.94,NW,322,6.3,7.6,35,0.00,,,0.00,VWS V14.01,2013-03-01 10:26:00,
2013-03-01 04:31:00,25.2,1.4,28.94,NW,318,9.6,9.6,35,0.00,,,0.00,VWS V14.01,2013-03-01 10:31:00,
2013-03-01 04:36:00,25.2,1.4,28.94,WNW,303,8.7,8.7,35,0.00,,,0.00,VWS V14.01,2013-03-01 10:36:00,
2013-03-01 04:41:00,25.2,1.4,28.94,NW,318,8.3,10.5,35,0.00,,,0.00,VWS V14.01,2013-03-01 10:41:00,
2013-03-01 04:46:00,25.0,1.2,28.94,NW,317,8.7,12.3,35,0.00,,,0.00,VWS V14.01,2013-03-01 10:46:00,
2013-03-01 04:51:00,25.0,1.2,28.94,WNW,303,8.1,8.3,35,0.00,,,0.00,VWS V14.01,2013-03-01 10:51:00,
2013-03-01 04:56:00,25.0,1.2,28.94,NW,308,7.6,7.6,35,0.00,,,0.00,VWS V14.01,2013-03-01 10:56:00,
2013-03-01 05:01:00,25.0,1.2,28.94,North,349,8.1,8.3,35,0.00,,,0.00,VWS V14.01,2013-03-01 11:01:00,
2013-03-01 05:06:00,25.0,0.6,28.94,NW,305,6.3,6.3,34,0.00,,,0.00,VWS V14.01,2013-03-01 11:06:00,
2013-03-01 05:11:00,24.8,1.0,28.94,NW,322,8.1,8.1,35,0.00,,,0.00,VWS V14.01,2013-03-01 11:11:00,
2013-03-01 05:16:00,24.8,1.0,28.94,NW,316,8.3,8.3,35,0.00,,,0.00,VWS V14.01,2013-03-01 11:16:00,
2013-03-01 05:21:00,24.8,1.6,28.94,NNW,328,8.7,8.7,36,0.00,,,0.00,VWS V14.01,2013-03-01 11:21:00,
2013-03-01 05:26:00,24.6,1.5,28.97,NW,310,8.7,8.7,36,0.00,,,0.00,VWS V14.01,2013-03-01 11:26:00,
2013-03-01 05:31:00,24.6,2.1,28.97,NW,310,8.7,8.7,37,0.00,,,0.00,VWS V14.01,2013-03-01 11:31:00,
2013-03-01 05:36:00,24.4,1.9,28.97,NW,310,8.7,8.7,37,0.00,,,0.00,VWS V14.01,2013-03-01 11:36:00,
2013-03-01 05:41:00,24.4,1.9,28.97,WNW,302,15.0,15.0,37,0.00,,,0.00,VWS V14.01,2013-03-01 11:41:00,
2013-03-01 05:46:00,24.4,1.9,28.97,WNW,294,12.8,15.0,37,0.00,,,0.00,VWS V14.01,2013-03-01 11:46:00,
2013-03-01 05:51:00,24.3,2.3,28.97,NNW,328,5.4,5.8,38,0.00,,,0.00,VWS V14.01,2013-03-01 11:51:00,
2013-03-01 05:56:00,24.3,2.3,28.97,NW,315,8.3,11.0,38,0.00,,,0.00,VWS V14.01,2013-03-01 11:56:00,
2013-03-01 06:01:00,24.3,1.8,28.97,NNW,335,12.8,12.8,37,0.00,,,0.00,VWS V14.01,2013-03-01 12:01:00,
2013-03-01 06:06:00,24.3,1.8,28.97,NNW,331,8.7,8.7,37,0.00,,,0.00,VWS V14.01,2013-03-01 12:06:00,
2013-03-01 06:11:00,24.3,1.8,28.97,NNW,335,8.1,11.0,37,0.00,,,0.00,VWS V14.01,2013-03-01 12:11:00,
2013-03-01 06:16:00,24.3,2.3,28.97,NNW,330,8.3,8.3,38,0.00,,,0.00,VWS V14.01,2013-03-01 12:16:00,
2013-03-01 06:21:00,24.3,1.8,28.97,NW,314,12.3,12.3,37,0.00,,,0.00,VWS V14.01,2013-03-01 12:21:00,
2013-03-01 06:26:00,24.3,1.8,28.94,NNW,334,7.6,7.6,37,0.00,,,0.00,VWS V14.01,2013-03-01 12:26:00,
2013-03-01 06:31:00,24.3,1.8,28.94,NW,323,8.7,8.7,37,0.00,,,0.00,VWS V14.01,2013-03-01 12:31:00,
2013-03-01 06:36:00,24.1,1.6,28.94,NW,305,10.1,11.0,37,0.00,,,0.00,VWS V14.01,2013-03-01 12:36:00,
2013-03-01 06:41:00,24.1,1.6,28.97,NW,318,11.0,12.8,37,0.00,,,0.00,VWS V14.01,2013-03-01 12:41:00,
2013-03-01 06:46:00,24.1,1.6,28.97,NNW,327,9.2,9.6,37,0.00,,,0.00,VWS V14.01,2013-03-01 12:46:00,
2013-03-01 06:51:00,24.1,1.6,28.97,NW,319,10.5,10.5,37,0.00,,,0.00,VWS V14.01,2013-03-01 12:51:00,
2013-03-01 06:56:00,23.9,1.4,28.97,NW,317,8.1,10.1,37,0.00,,,0.00,VWS V14.01,2013-03-01 12:56:00,
2013-03-01 07:01:00,23.9,1.4,28.97,NW,322,12.3,12.3,37,0.00,,,0.00,VWS V14.01,2013-03-01 13:01:00,
2013-03-01 07:06:00,23.9,1.4,28.97,WNW,302,8.7,10.5,37,0.00,,,0.00,VWS V14.01,2013-03-01 13:06:00,
2013-03-01 07:11:00,24.1,2.2,28.97,WNW,302,6.3,8.3,38,0.00,,,0.00,VWS V14.01,2013-03-01 13:11:00,
2013-03-01 07:16:00,24.1,2.2,28.97,NW,316,8.3,8.3,38,0.00,,,0.00,VWS V14.01,2013-03-01 13:16:00,
2013-03-01 07:21:00,24.1,1.6,28.97,NW,307,10.1,10.1,37,0.00,,,0.00,VWS V14.01,2013-03-01 13:21:00,
2013-03-01 07:26:00,24.1,1.6,28.97,NW,317,5.4,6.3,37,0.00,,,0.00,VWS V14.01,2013-03-01 13:26:00,
2013-03-01 07:31:00,24.1,1.6,28.97,NW,315,10.1,10.1,37,0.00,,,0.00,VWS V14.01,2013-03-01 13:31:00,
2013-03-01 07:36:00,24.1,1.6,28.97,NW,313,9.6,11.0,37,0.00,,,0.00,VWS V14.01,2013-03-01 13:36:00,
2013-03-01 07:41:00,24.1,2.2,28.97,WNW,303,11.0,11.0,38,0.00,,,0.00,VWS V14.01,2013-03-01 13:41:00,
2013-03-01 07:46:00,24.1,2.2,28.97,NW,311,6.3,7.6,38,0.00,,,0.00,VWS V14.01,2013-03-01 13:46:00,
2013-03-01 07:51:00,24.3,2.3,28.97,NW,318,10.1,13.2,38,0.00,,,0.00,VWS V14.01,2013-03-01 13:51:00,
2013-03-01 07:56:00,24.3,2.3,28.97,WNW,292,11.0,11.0,38,0.00,,,0.00,VWS V14.01,2013-03-01 13:56:00,
2013-03-01 08:01:00,24.3,2.3,28.97,NNW,333,10.1,10.5,38,0.00,,,0.00,VWS V14.01,2013-03-01 14:01:00,
2013-03-01 08:06:00,24.3,2.9,28.97,NW,313,8.7,11.0,39,0.00,,,0.00,VWS V14.01,2013-03-01 14:06:00,
2013-03-01 08:11:00,24.3,2.9,28.97,NW,307,8.3,10.5,39,0.00,,,0.00,VWS V14.01,2013-03-01 14:11:00,
2013-03-01 08:16:00,24.4,3.0,28.97,NW,316,10.5,11.0,39,0.00,,,0.00,VWS V14.01,2013-03-01 14:16:00,
2013-03-01 08:21:00,24.4,3.0,28.97,NW,306,11.0,11.0,39,0.00,,,0.00,VWS V14.01,2013-03-01 14:21:00,
2013-03-01 08:26:00,24.4,3.0,28.97,NNW,331,8.7,8.7,39,0.00,,,0.00,VWS V14.01,2013-03-01 14:26:00,
2013-03-01 08:31:00,24.4,3.0,28.97,NW,321,10.5,11.0,39,0.00,,,0.00,VWS V14.01,2013-03-01 14:31:00,
2013-03-01 08:36:00,24.4,3.6,28.97,NW,316,7.2,7.6,40,0.00,,,0.00,VWS V14.01,2013-03-01 14:36:00,
2013-03-01 08:41:00,24.6,3.8,29.00,NW,315,8.1,12.3,40,0.00,,,0.00,VWS V14.01,2013-03-01 14:41:00,
2013-03-01 08:46:00,24.8,3.4,29.00,NNW,331,10.5,10.5,39,0.00,,,0.00,VWS V14.01,2013-03-01 14:46:00,
2013-03-01 08:51:00,24.6,3.8,29.00,NW,322,13.6,13.6,40,0.00,,,0.00,VWS V14.01,2013-03-01 14:51:00,
2013-03-01 08:56:00,24.8,4.4,29.00,NW,312,12.3,12.3,41,0.00,,,0.00,VWS V14.01,2013-03-01 14:56:00,
2013-03-01 09:01:00,25.0,4.1,29.00,NW,313,11.0,11.0,40,0.00,,,0.00,VWS V14.01,2013-03-01 15:01:00,
2013-03-01 09:06:00,25.3,4.4,29.00,NW,314,10.1,10.1,40,0.00,,,0.00,VWS V14.01,2013-03-01 15:06:00,
2013-03-01 09:11:00,25.5,4.0,29.00,NW,315,7.6,7.6,39,0.00,,,0.00,VWS V14.01,2013-03-01 15:11:00,
2013-03-01 09:16:00,25.7,4.2,29.00,NW,322,11.0,11.0,39,0.00,,,0.00,VWS V14.01,2013-03-01 15:16:00,
2013-03-01 09:21:00,26.1,4.5,29.00,NNW,341,8.7,12.8,39,0.00,,,0.00,VWS V14.01,2013-03-01 15:21:00,
2013-03-01 09:26:00,25.9,4.3,29.00,NNW,335,10.1,10.1,39,0.00,,,0.00,VWS V14.01,2013-03-01 15:26:00,
2013-03-01 09:31:00,25.7,4.2,29.00,NNW,331,8.7,11.4,39,0.00,,,0.00,VWS V14.01,2013-03-01 15:31:00,
2013-03-01 09:36:00,26.1,4.5,29.00,WNW,301,9.2,9.2,39,0.00,,,0.00,VWS V14.01,2013-03-01 15:36:00,
2013-03-01 09:41:00,25.9,4.9,29.00,NNW,330,7.6,11.0,40,0.00,,,0.00,VWS V14.01,2013-03-01 15:41:00,
2013-03-01 09:46:00,26.1,5.6,29.00,NW,315,8.7,8.7,41,0.00,,,0.00,VWS V14.01,2013-03-01 15:46:00,
2013-03-01 09:51:00,26.1,5.1,29.00,NNW,341,8.7,8.7,40,0.00,,,0.00,VWS V14.01,2013-03-01 15:51:00,
2013-03-01 09:56:00,26.2,5.2,29.00,NNW,344,10.5,10.5,40,0.00,,,0.00,VWS V14.01,2013-03-01 15:56:00,
2013-03-01 10:01:00,26.8,5.2,29.00,NNW,329,11.4,12.8,39,0.00,,,0.00,VWS V14.01,2013-03-01 16:01:00,
2013-03-01 10:06:00,27.0,4.8,29.00,NW,307,8.7,8.7,38,0.00,,,0.00,VWS V14.01,2013-03-01 16:06:00,
2013-03-01 10:11:00,27.0,4.2,29.00,NW,326,8.7,12.3,37,0.00,,,0.00,VWS V14.01,2013-03-01 16:11:00,
2013-03-01 10:16:00,27.1,3.7,29.00,NNW,331,12.8,12.8,36,0.00,,,0.00,VWS V14.01,2013-03-01 16:16:00,
2013-03-01 10:21:00,27.5,4.1,29.00,NW,326,10.1,10.1,36,0.00,,,0.00,VWS V14.01,2013-03-01 16:21:00,
2013-03-01 10:26:00,27.9,3.8,29.00,NNW,339,10.1,10.1,35,0.00,,,0.00,VWS V14.01,2013-03-01 16:26:00,
2013-03-01 10:31:00,28.0,3.3,29.00,NNW,331,13.2,13.2,34,0.00,,,0.00,VWS V14.01,2013-03-01 16:31:00,
2013-03-01 10:36:00,28.2,2.8,29.00,NNW,328,7.6,10.1,33,0.00,,,0.00,VWS V14.01,2013-03-01 16:36:00,
2013-03-01 10:41:00,28.6,3.1,29.00,NW,316,6.3,8.3,33,0.00,,,0.00,VWS V14.01,2013-03-01 16:41:00,
2013-03-01 10:46:00,28.6,2.5,29.00,North,0,7.6,7.6,32,0.00,,,0.00,VWS V14.01,2013-03-01 16:46:00,
2013-03-01 10:51:00,28.4,2.3,29.00,NNW,346,8.7,9.6,32,0.00,,,0.00,VWS V14.01,2013-03-01 16:51:00,
2013-03-01 10:56:00,28.0,2.0,29.00,WNW,291,10.5,11.4,32,0.00,,,0.00,VWS V14.01,2013-03-01 16:56:00,
2013-03-01 11:01:00,28.4,3.0,29.00,NW,325,10.1,10.5,33,0.00,,,0.00,VWS V14.01,2013-03-01 17:01:00,
2013-03-01 11:06:00,27.9,1.8,29.00,NW,319,11.0,11.0,32,0.00,,,0.00,VWS V14.01,2013-03-01 17:06:00,
2013-03-01 11:11:00,27.7,1.7,29.00,NNW,332,10.5,11.0,32,0.00,,,0.00,VWS V14.01,2013-03-01 17:11:00,
2013-03-01 11:16:00,28.2,2.2,29.00,NNW,339,8.3,9.2,32,0.00,,,0.00,VWS V14.01,2013-03-01 17:16:00,
2013-03-01 11:21:00,28.4,2.3,29.00,NW,325,7.6,7.6,32,0.00,,,0.00,VWS V14.01,2013-03-01 17:21:00,
2013-03-01 11:26:00,28.6,1.8,29.00,NW,316,10.1,10.1,31,0.00,,,0.00,VWS V14.01,2013-03-01 17:26:00,
2013-03-01 11:31:00,28.6,1.8,29.00,NNW,330,15.4,15.4,31,0.00,,,0.00,VWS V14.01,2013-03-01 17:31:00,
2013-03-01 11:35:00,28.8,2.0,29.00,NW,324,8.1,11.0,31,0.00,,,0.00,VWS V14.01,2013-03-01 17:35:00,
2013-03-01 11:36:00,28.6,1.8,29.00,NW,320,7.6,8.1,31,0.00,,,0.00,VWS V14.01,2013-03-01 17:36:00,
2013-03-01 11:53:00,30.4,2.7,29.00,WNW,303,6.3,6.3,30,0.00,,,0.00,VWS V14.01,2013-03-01 17:53:00,
2013-03-01 11:58:00,29.7,2.0,29.00,NW,315,5.8,8.1,30,0.00,,,0.00,VWS V14.01,2013-03-01 17:58:00,
2013-03-01 12:03:00,29.3,2.4,29.00,NNW,332,8.3,15.0,31,0.00,,,0.00,VWS V14.01,2013-03-01 18:03:00,
2013-03-01 12:08:00,29.5,2.6,29.00,NNW,330,8.3,10.5,31,0.00,,,0.00,VWS V14.01,2013-03-01 18:08:00,
2013-03-01 12:12:00,28.8,2.0,29.00,NNW,327,8.1,8.1,31,0.00,,,0.00,VWS V14.01,2013-03-01 18:12:00,
2013-03-01 12:17:00,28.8,2.0,29.00,NW,314,12.3,12.3,31,0.00,,,0.00,VWS V14.01,2013-03-01 18:17:00,
2013-03-01 12:22:00,28.6,1.8,29.00,NW,321,7.6,8.1,31,0.00,,,0.00,VWS V14.01,2013-03-01 18:22:00,
2013-03-01 12:27:00,28.8,2.0,29.00,NW,313,10.1,15.0,31,0.00,,,0.00,VWS V14.01,2013-03-01 18:27:00,
2013-03-01 12:32:00,28.6,1.8,29.00,NW,311,11.9,11.9,31,0.00,,,0.00,VWS V14.01,2013-03-01 18:32:00,
2013-03-01 12:37:00,28.6,1.8,29.00,NNW,332,13.2,15.4,31,0.00,,,0.00,VWS V14.01,2013-03-01 18:37:00,
2013-03-01 12:43:00,28.6,1.8,29.00,NW,311,10.5,10.5,31,0.00,,,0.00,VWS V14.01,2013-03-01 18:43:00,
2013-03-01 12:48:00,28.6,1.8,29.00,NW,313,10.5,13.2,31,0.00,,,0.00,VWS V14.01,2013-03-01 18:48:00,
2013-03-01 12:53:00,28.9,2.1,29.00,NNW,332,5.8,8.7,31,0.00,,,0.00,VWS V14.01,2013-03-01 18:53:00,
2013-03-01 12:57:00,28.8,2.0,29.00,NW,313,5.4,12.3,31,0.00,,,0.00,VWS V14.01,2013-03-01 18:57:00,
2013-03-01 13:02:00,28.6,1.8,29.00,NNW,333,10.1,13.2,31,0.00,,,0.00,VWS V14.01,2013-03-01 19:02:00,
2013-03-01 13:07:00,28.6,1.8,29.00,NNW,331,8.7,8.7,31,0.00,,,0.00,VWS V14.01,2013-03-01 19:07:00,
2013-03-01 13:12:00,28.9,2.1,29.00,North,2,9.2,9.2,31,0.00,,,0.00,VWS V14.01,2013-03-01 19:12:00,
2013-03-01 13:17:00,28.6,1.8,29.00,NNW,339,8.7,8.7,31,0.00,,,0.00,VWS V14.01,2013-03-01 19:17:00,
2013-03-01 13:22:00,28.6,1.8,29.00,North,349,10.1,11.0,31,0.00,,,0.00,VWS V14.01,2013-03-01 19:22:00,
2013-03-01 13:27:00,28.6,1.8,29.00,NW,308,11.0,11.0,31,0.00,,,0.00,VWS V14.01,2013-03-01 19:27:00,
2013-03-01 13:32:00,28.8,2.0,29.00,NNW,346,7.6,8.3,31,0.00,,,0.00,VWS V14.01,2013-03-01 19:32:00,
2013-03-01 13:37:00,28.6,1.8,29.00,WNW,299,8.3,8.7,31,0.00,,,0.00,VWS V14.01,2013-03-01 19:37:00,
2013-03-01 13:42:00,28.6,1.8,29.00,NNW,341,8.7,10.5,31,0.00,,,0.00,VWS V14.01,2013-03-01 19:42:00,
2013-03-01 13:47:00,28.8,2.0,29.00,NW,315,10.5,10.5,31,0.00,,,0.00,VWS V14.01,2013-03-01 19:47:00,
2013-03-01 13:52:00,28.6,1.8,29.00,North,357,8.7,12.8,31,0.00,,,0.00,VWS V14.01,2013-03-01 19:52:00,
2013-03-01 13:57:00,28.6,1.1,29.00,North,353,8.3,8.7,30,0.00,,,0.00,VWS V14.01,2013-03-01 19:57:00,
2013-03-01 14:02:00,28.4,1.6,29.00,NNW,334,10.1,10.1,31,0.00,,,0.00,VWS V14.01,2013-03-01 20:02:00,
2013-03-01 14:07:00,28.6,1.1,28.97,NNW,344,9.6,10.5,30,0.00,,,0.00,VWS V14.01,2013-03-01 20:07:00,
2013-03-01 14:12:00,28.2,1.5,28.97,NNW,342,10.1,10.1,31,0.00,,,0.00,VWS V14.01,2013-03-01 20:12:00,
2013-03-01 14:17:00,28.2,1.5,28.97,North,349,8.7,9.6,31,0.00,,,0.00,VWS V14.01,2013-03-01 20:17:00,
2013-03-01 14:22:00,28.4,1.6,29.00,NNW,346,13.6,15.0,31,0.00,,,0.00,VWS V14.01,2013-03-01 20:22:00,
2013-03-01 14:27:00,28.6,1.1,29.00,NNW,329,7.6,13.6,30,0.00,,,0.00,VWS V14.01,2013-03-01 20:27:00,
2013-03-01 14:32:00,28.6,1.1,29.00,NNW,343,11.4,12.8,30,0.00,,,0.00,VWS V14.01,2013-03-01 20:32:00,
2013-03-01 14:37:00,28.4,-0.5,29.00,NNW,332,12.8,14.5,28,0.00,,,0.00,VWS V14.01,2013-03-01 20:37:00,
2013-03-01 14:42:00,28.6,-0.4,29.00,NW,321,13.2,13.2,28,0.00,,,0.00,VWS V14.01,2013-03-01 20:42:00,
2013-03-01 14:47:00,28.6,-0.4,29.00,NNW,339,17.9,17.9,28,0.00,,,0.00,VWS V14.01,2013-03-01 20:47:00,
2013-03-01 14:52:00,28.4,-0.5,29.00,North,353,11.0,15.0,28,0.00,,,0.00,VWS V14.01,2013-03-01 20:52:00,
2013-03-01 14:57:00,28.9,-0.1,29.00,NNW,335,6.3,8.7,28,0.00,,,0.00,VWS V14.01,2013-03-01 20:57:00,
2013-03-01 15:02:00,28.6,-0.4,29.00,NNW,329,12.8,12.8,28,0.00,,,0.00,VWS V14.01,2013-03-01 21:02:00,
2013-03-01 15:07:00,28.6,-2.8,29.00,NNW,339,10.1,11.0,25,0.00,,,0.00,VWS V14.01,2013-03-01 21:07:00,
2013-03-01 15:12:00,29.1,-2.3,29.00,NNW,339,15.0,15.0,25,0.00,,,0.00,VWS V14.01,2013-03-01 21:12:00,
2013-03-01 15:17:00,28.9,-2.5,29.00,North,5,8.7,11.0,25,0.00,,,0.00,VWS V14.01,2013-03-01 21:17:00,
2013-03-01 15:22:00,29.5,-2.0,29.00,NNW,344,10.5,12.3,25,0.00,,,0.00,VWS V14.01,2013-03-01 21:22:00,
2013-03-01 15:27:00,29.8,-1.7,29.00,North,0,8.3,11.0,25,0.00,,,0.00,VWS V14.01,2013-03-01 21:27:00,
2013-03-01 15:32:00,29.5,-2.0,29.00,NNW,329,10.5,13.2,25,0.00,,,0.00,VWS V14.01,2013-03-01 21:32:00,
2013-03-01 15:37:00,29.1,-2.3,29.00,NNW,337,8.3,11.0,25,0.00,,,0.00,VWS V14.01,2013-03-01 21:37:00,
2013-03-01 15:42:00,29.3,-2.2,29.00,North,353,7.6,10.1,25,0.00,,,0.00,VWS V14.01,2013-03-01 21:42:00,
2013-03-01 15:47:00,29.5,-2.0,29.00,NNW,341,8.3,10.1,25,0.00,,,0.00,VWS V14.01,2013-03-01 21:47:00,
2013-03-01 15:52:00,29.1,-2.3,29.00,NW,326,9.2,11.0,25,0.00,,,0.00,VWS V14.01,2013-03-01 21:52:00,
2013-03-01 15:57:00,29.3,-2.2,29.00,NNW,340,10.1,10.5,25,0.00,,,0.00,VWS V14.01,2013-03-01 21:57:00,
2013-03-01 16:02:00,29.1,-2.3,29.00,NNW,344,8.1,11.0,25,0.00,,,0.00,VWS V14.01,2013-03-01 22:02:00,
2013-03-01 16:07:00,29.5,-2.0,29.00,NW,316,8.7,8.7,25,0.00,,,0.00,VWS V14.01,2013-03-01 22:07:00,
2013-03-01 16:12:00,29.7,-1.8,29.00,NNW,341,4.9,8.1,25,0.00,,,0.00,VWS V14.01,2013-03-01 22:12:00,
2013-03-01 16:17:00,29.5,-2.0,29.00,NNW,327,10.5,10.5,25,0.00,,,0.00,VWS V14.01,2013-03-01 22:17:00,
2013-03-01 16:22:00,29.1,-2.3,29.00,NW,318,8.1,8.1,25,0.00,,,0.00,VWS V14.01,2013-03-01 22:22:00,
2013-03-01 16:27:00,29.1,-2.3,29.00,NNW,331,6.3,6.3,25,0.00,,,0.00,VWS V14.01,2013-03-01 22:27:00,
2013-03-01 16:32:00,28.9,-2.5,29.00,NNW,344,8.7,11.4,25,0.00,,,0.00,VWS V14.01,2013-03-01 22:32:00,
2013-03-01 16:37:00,28.8,-2.6,29.00,NNW,333,11.0,11.0,25,0.00,,,0.00,VWS V14.01,2013-03-01 22:37:00,
2013-03-01 16:42:00,28.6,-2.8,29.00,NNW,336,10.5,12.8,25,0.00,,,0.00,VWS V14.01,2013-03-01 22:42:00,
2013-03-01 16:47:00,28.6,-2.8,29.00,NNW,333,8.1,8.1,25,0.00,,,0.00,VWS V14.01,2013-03-01 22:47:00,
2013-03-01 16:52:00,28.6,-2.8,29.00,North,353,13.2,13.2,25,0.00,,,0.00,VWS V14.01,2013-03-01 22:52:00,
2013-03-01 16:57:00,28.4,-0.5,29.00,NNW,329,12.3,12.3,28,0.00,,,0.00,VWS V14.01,2013-03-01 22:57:00,
2013-03-01 17:02:00,28.4,-0.5,29.00,NW,326,8.3,10.5,28,0.00,,,0.00,VWS V14.01,2013-03-01 23:02:00,
2013-03-01 17:07:00,28.4,-0.5,29.00,North,353,8.3,10.1,28,0.00,,,0.00,VWS V14.01,2013-03-01 23:07:00,
2013-03-01 17:12:00,28.0,-0.9,29.00,NW,308,8.3,10.5,28,0.00,,,0.00,VWS V14.01,2013-03-01 23:12:00,
2013-03-01 17:17:00,27.9,-1.0,29.00,NW,325,8.7,8.7,28,0.00,,,0.00,VWS V14.01,2013-03-01 23:17:00,
2013-03-01 17:22:00,27.7,-1.2,29.03,NW,321,8.7,12.3,28,0.00,,,0.00,VWS V14.01,2013-03-01 23:22:00,
2013-03-01 17:27:00,27.7,-1.2,29.03,NNW,335,7.6,13.2,28,0.00,,,0.00,VWS V14.01,2013-03-01 23:27:00,
2013-03-01 17:32:00,27.5,-1.3,29.03,NNW,334,11.0,12.3,28,0.00,,,0.00,VWS V14.01,2013-03-01 23:32:00,
2013-03-01 17:37:00,27.5,-1.3,29.03,NNW,337,8.3,8.3,28,0.00,,,0.00,VWS V14.01,2013-03-01 23:37:00,
2013-03-01 17:42:00,27.3,-1.5,29.03,NNW,341,10.5,11.0,28,0.00,,,0.00,VWS V14.01,2013-03-01 23:42:00,
2013-03-01 17:47:00,27.1,-1.6,29.03,NNW,327,7.6,10.1,28,0.00,,,0.00,VWS V14.01,2013-03-01 23:47:00,
2013-03-01 17:52:00,27.1,-1.6,29.03,NW,310,8.7,10.5,28,0.00,,,0.00,VWS V14.01,2013-03-01 23:52:00,
2013-03-01 17:57:00,27.0,-1.8,29.03,NW,317,8.3,10.1,28,0.00,,,0.00,VWS V14.01,2013-03-01 23:57:00,
2013-03-01 18:02:00,27.0,-1.8,29.03,NNW,329,8.3,8.3,28,0.00,,,0.00,VWS V14.01,2013-03-02 00:02:00,
2013-03-01 18:07:00,26.8,-1.9,29.03,North,350,8.7,10.1,28,0.00,,,0.00,VWS V14.01,2013-03-02 00:07:00,
2013-03-01 18:12:00,26.6,-1.4,29.03,NNW,338,12.3,12.3,29,0.00,,,0.00,VWS V14.01,2013-03-02 00:12:00,
2013-03-01 18:17:00,26.4,-1.5,29.03,NW,313,11.0,11.0,29,0.00,,,0.00,VWS V14.01,2013-03-02 00:17:00,
2013-03-01 18:22:00,26.4,-1.5,29.03,NNW,327,10.5,12.3,29,0.00,,,0.00,VWS V14.01,2013-03-02 00:22:00,
2013-03-01 18:27:00,26.4,-1.5,29.03,NNW,331,5.8,7.2,29,0.00,,,0.00,VWS V14.01,2013-03-02 00:27:00,
2013-03-01 18:32:00,26.2,-1.7,29.03,NNW,327,8.3,11.0,29,0.00,,,0.00,VWS V14.01,2013-03-02 00:32:00,
2013-03-01 18:37:00,26.1,-1.8,29.03,NW,320,8.1,8.7,29,0.00,,,0.00,VWS V14.01,2013-03-02 00:37:00,
2013-03-01 18:42:00,26.1,-1.8,29.03,NW,316,7.6,8.3,29,0.00,,,0.00,VWS V14.01,2013-03-02 00:42:00,
2013-03-01 18:47:00,26.1,-1.8,29.03,NNW,332,7.6,8.3,29,0.00,,,0.00,VWS V14.01,2013-03-02 00:47:00,
2013-03-01 18:52:00,26.1,-1.8,29.03,NW,320,8.3,10.1,29,0.00,,,0.00,VWS V14.01,2013-03-02 00:52:00,
2013-03-01 18:57:00,26.1,-0.4,29.03,NNW,329,8.1,8.3,31,0.00,,,0.00,VWS V14.01,2013-03-02 00:57:00,
2013-03-01 19:02:00,25.9,-2.0,29.03,NNW,329,10.5,10.5,29,0.00,,,0.00,VWS V14.01,2013-03-02 01:02:00,
2013-03-01 19:07:00,25.7,-0.7,29.03,North,349,7.6,8.3,31,0.00,,,0.00,VWS V14.01,2013-03-02 01:07:00,
2013-03-01 19:12:00,25.7,-0.7,29.03,NNW,334,5.8,8.7,31,0.00,,,0.00,VWS V14.01,2013-03-02 01:12:00,
2013-03-01 19:17:00,25.7,-0.7,29.03,North,0,8.7,10.1,31,0.00,,,0.00,VWS V14.01,2013-03-02 01:17:00,
2013-03-01 19:22:00,25.5,-0.9,29.06,NNW,333,5.4,7.6,31,0.00,,,0.00,VWS V14.01,2013-03-02 01:22:00,
2013-03-01 19:27:00,25.5,-2.3,29.06,NW,323,8.7,8.7,29,0.00,,,0.00,VWS V14.01,2013-03-02 01:27:00,
2013-03-01 19:32:00,25.3,-2.5,29.06,North,350,7.6,8.3,29,0.00,,,0.00,VWS V14.01,2013-03-02 01:32:00,
2013-03-01 19:37:00,25.3,-2.5,29.03,NNW,335,10.5,12.3,29,0.00,,,0.00,VWS V14.01,2013-03-02 01:37:00,
2013-03-01 19:42:00,25.3,-1.1,29.03,NNW,331,8.7,8.7,31,0.00,,,0.00,VWS V14.01,2013-03-02 01:42:00,
2013-03-01 19:47:00,25.3,-1.1,29.03,NNW,333,6.3,6.3,31,0.00,,,0.00,VWS V14.01,2013-03-02 01:47:00,
2013-03-01 19:52:00,25.3,-1.1,29.06,NNW,332,13.2,13.2,31,0.00,,,0.00,VWS V14.01,2013-03-02 01:52:00,
2013-03-01 19:57:00,25.2,-1.2,29.06,NNW,346,10.5,10.5,31,0.00,,,0.00,VWS V14.01,2013-03-02 01:57:00,
2013-03-01 20:02:00,25.2,-1.2,29.06,NNW,328,6.3,6.3,31,0.00,,,0.00,VWS V14.01,2013-03-02 02:02:00,
2013-03-01 20:07:00,25.2,-1.2,29.06,NNW,339,8.3,12.3,31,0.00,,,0.00,VWS V14.01,2013-03-02 02:07:00,
2013-03-01 20:12:00,25.2,-1.2,29.06,North,350,12.3,12.3,31,0.00,,,0.00,VWS V14.01,2013-03-02 02:12:00,
2013-03-01 20:17:00,25.2,-1.2,29.06,NNW,345,5.8,11.0,31,0.00,,,0.00,VWS V14.01,2013-03-02 02:17:00,
2013-03-01 20:22:00,25.2,-1.2,29.06,NW,324,12.8,12.8,31,0.00,,,0.00,VWS V14.01,2013-03-02 02:22:00,
2013-03-01 20:27:00,25.0,-1.4,29.06,North,349,8.1,8.3,31,0.00,,,0.00,VWS V14.01,2013-03-02 02:27:00,
2013-03-01 20:32:00,25.0,-1.4,29.06,NNW,342,8.3,9.6,31,0.00,,,0.00,VWS V14.01,2013-03-02 02:32:00,
2013-03-01 20:37:00,25.0,-1.4,29.06,NNE,13,8.7,13.6,31,0.00,,,0.00,VWS V14.01,2013-03-02 02:37:00,
2013-03-01 20:42:00,25.0,-1.4,29.06,North,1,6.7,6.7,31,0.00,,,0.00,VWS V14.01,2013-03-02 02:42:00,
2013-03-01 20:47:00,25.0,-0.7,29.06,North,350,5.4,5.4,32,0.00,,,0.00,VWS V14.01,2013-03-02 02:47:00,
2013-03-01 20:52:00,25.0,-0.7,29.06,NNW,345,4.0,4.0,32,0.00,,,0.00,VWS V14.01,2013-03-02 02:52:00,
2013-03-01 20:57:00,25.0,-0.7,29.06,NW,321,8.3,8.3,32,0.00,,,0.00,VWS V14.01,2013-03-02 02:57:00,
2013-03-01 21:02:00,24.8,-0.9,29.06,NNW,341,10.1,10.1,32,0.00,,,0.00,VWS V14.01,2013-03-02 03:02:00,
2013-03-01 21:07:00,24.6,-1.0,29.06,NNW,329,7.6,8.7,32,0.00,,,0.00,VWS V14.01,2013-03-02 03:07:00,
2013-03-01 21:12:00,24.6,-1.0,29.06,NNW,342,5.8,5.8,32,0.00,,,0.00,VWS V14.01,2013-03-02 03:12:00,
2013-03-01 21:17:00,24.6,-1.0,29.06,NW,324,8.3,8.3,32,0.00,,,0.00,VWS V14.01,2013-03-02 03:17:00,
2013-03-01 21:22:00,24.6,-1.0,29.03,NNW,335,8.7,11.4,32,0.00,,,0.00,VWS V14.01,2013-03-02 03:22:00,
2013-03-01 21:27:00,24.6,-1.0,29.03,NNW,331,10.1,10.1,32,0.00,,,0.00,VWS V14.01,2013-03-02 03:27:00,
2013-03-01 21:32:00,24.4,-1.2,29.03,North,353,4.0,4.5,32,0.00,,,0.00,VWS V14.01,2013-03-02 03:32:00,
2013-03-01 21:37:00,24.4,-1.2,29.06,NNW,348,10.1,10.1,32,0.00,,,0.00,VWS V14.01,2013-03-02 03:37:00,
2013-03-01 21:42:00,24.4,-1.2,29.06,North,7,5.4,5.8,32,0.00,,,0.00,VWS V14.01,2013-03-02 03:42:00,
2013-03-01 21:47:00,24.3,-1.3,29.06,North,0,10.5,10.5,32,0.00,,,0.00,VWS V14.01,2013-03-02 03:47:00,
2013-03-01 21:52:00,24.3,-1.3,29.06,NNW,343,6.7,8.7,32,0.00,,,0.00,VWS V14.01,2013-03-02 03:52:00,
2013-03-01 21:57:00,24.1,-1.5,29.06,North,2,8.1,9.2,32,0.00,,,0.00,VWS V14.01,2013-03-02 03:57:00,
2013-03-01 22:02:00,24.1,-1.5,29.06,NNW,327,8.1,8.7,32,0.00,,,0.00,VWS V14.01,2013-03-02 04:02:00,
2013-03-01 22:07:00,24.1,-1.5,29.06,NW,314,11.0,11.0,32,0.00,,,0.00,VWS V14.01,2013-03-02 04:07:00,
2013-03-01 22:12:00,23.9,-1.7,29.06,NW,315,7.6,8.3,32,0.00,,,0.00,VWS V14.01,2013-03-02 04:12:00,
2013-03-01 22:17:00,23.9,-1.7,29.06,NNW,336,8.3,10.1,32,0.00,,,0.00,VWS V14.01,2013-03-02 04:17:00,
2013-03-01 22:22:00,23.9,-1.7,29.06,NNW,334,8.7,8.7,32,0.00,,,0.00,VWS V14.01,2013-03-02 04:22:00,
2013-03-01 22:27:00,23.9,-1.7,29.06,NNW,330,8.1,8.1,32,0.00,,,0.00,VWS V14.01,2013-03-02 04:27:00,
2013-03-01 22:32:00,23.9,-1.7,29.06,NW,316,7.6,8.1,32,0.00,,,0.00,VWS V14.01,2013-03-02 04:32:00,
2013-03-01 22:37:00,23.9,-1.7,29.06,NNW,327,5.8,7.6,32,0.00,,,0.00,VWS V14.01,2013-03-02 04:37:00,
2013-03-01 22:42:00,23.9,-1.7,29.06,NNW,328,10.5,10.5,32,0.00,,,0.00,VWS V14.01,2013-03-02 04:42:00,
2013-03-01 22:47:00,23.7,-1.8,29.06,NW,312,5.8,8.1,32,0.00,,,0.00,VWS V14.01,2013-03-02 04:47:00,
2013-03-01 22:52:00,23.5,-2.0,29.06,NNW,343,5.8,7.6,32,0.00,,,0.00,VWS V14.01,2013-03-02 04:52:00,
2013-03-01 22:57:00,23.5,-2.0,29.06,North,357,8.7,8.7,32,0.00,,,0.00,VWS V14.01,2013-03-02 04:57:00,
2013-03-01 23:00:00,23.5,-2.0,29.06,NNW,334,10.5,10.5,32,0.00,,,0.00,VWS V14.01,2013-03-02 05:00:00,
2013-03-01 23:05:00,23.5,-2.0,29.06,North,10,5.4,10.5,32,0.00,,,0.00,VWS V14.01,2013-03-02 05:05:00,
2013-03-01 23:10:00,23.4,-2.1,29.06,NNW,334,6.3,8.7,32,0.00,,,0.00,VWS V14.01,2013-03-02 05:10:00,
2013-03-01 23:15:00,23.4,-2.1,29.06,NNW,333,8.1,8.1,32,0.00,,,0.00,VWS V14.01,2013-03-02 05:15:00,
2013-03-01 23:20:00,23.4,-2.1,29.06,NNW,345,7.6,7.6,32,0.00,,,0.00,VWS V14.01,2013-03-02 05:20:00,
2013-03-01 23:25:00,23.4,-2.1,29.06,NNW,329,4.0,5.8,32,0.00,,,0.00,VWS V14.01,2013-03-02 05:25:00,
2013-03-01 23:30:00,23.4,-2.1,29.06,North,357,9.2,9.2,32,0.00,,,0.00,VWS V14.01,2013-03-02 05:30:00,
2013-03-01 23:35:00,23.4,-2.1,29.06,North,7,4.0,5.4,32,0.00,,,0.00,VWS V14.01,2013-03-02 05:35:00,
2013-03-01 23:40:00,23.4,-1.5,29.06,NNW,345,4.0,5.4,33,0.00,,,0.00,VWS V14.01,2013-03-02 05:40:00,
2013-03-01 23:45:00,23.4,-2.1,29.06,NNW,340,8.3,8.3,32,0.00,,,0.00,VWS V14.01,2013-03-02 05:45:00,
2013-03-01 23:50:00,23.4,-2.1,29.06,NNW,328,5.8,5.8,32,0.00,,,0.00,VWS V14.01,2013-03-02 05:50:00,
2013-03-01 23:55:00,23.4,-2.1,29.06,North,11,6.3,7.6,32,0.00,,,0.00,VWS V14.01,2013-03-02 05:55:00,